Location: Campillo
(40.8621°N, 4.2488°W)
Time: 00:29:31
(UTC+00:00)

Cosmos 2154 Rocket - Pass Details

Date: 28 September 2021
Orbit: 965 x 997 km, 82.9° (Epoch: 21 October)

Event Time Altitude Azimuth Distance (km) Brightness Sun altitude
Rises 05:10:23 0° 2° (N) 3,702 7.2 -12.2°
Reaches altitude 10° 05:13:17 10° 13° (NNE) 2,744 6.6 -11.6°
Maximum altitude 05:18:42 30° 73° (ENE) 1,682 6.2 -10.6°
Drops below altitude 10° 05:24:04 10° 133° (SE) 2,711 7.0 -9.6°
Sets 05:26:53 0° 144° (SE) 3,650 7.5 -9.1°
